DAL4187 KPWM-KBNA

Flight info

Callsign DAL4187
Flight time N/A
Altitude 36000
Route HSKEL3 CAM ALB J49 PSB Q71 GEFFS HVQ Q68 YOCKY CUTRR PASLY5
Aircraft B738/M-SDE2E3FGHIRWXY/LB1

Departure

Time N/A
Airport Portland International Jetport (KPWM)

Arrival

Time 2026-05-05 23:52
Airport Nashville International Airport (KBNA)
Time Latitude Longitude Altitude Speed Heading
2026-05-05 23:27 36.93900 -85.01650 29304 ft 352 kts 246°
2026-05-05 23:27 36.92639 -85.04246 28815 ft 348 kts 246°
2026-05-05 23:27 36.91392 -85.06814 28329 ft 345 kts 246°
2026-05-05 23:28 36.90157 -85.09367 27835 ft 342 kts 245°
2026-05-05 23:28 36.88920 -85.11890 27359 ft 338 kts 245°
2026-05-05 23:28 36.87708 -85.14364 26885 ft 335 kts 246°
2026-05-05 23:28 36.86514 -85.16827 26418 ft 331 kts 246°
2026-05-05 23:29 36.85337 -85.19275 25947 ft 328 kts 246°
2026-05-05 23:29 36.84144 -85.21699 25493 ft 326 kts 244°
2026-05-05 23:29 36.82968 -85.24107 25029 ft 323 kts 245°
2026-05-05 23:29 36.81807 -85.26481 24568 ft 320 kts 245°
2026-05-05 23:30 36.80659 -85.28812 24114 ft 317 kts 245°
2026-05-05 23:30 36.79509 -85.31157 23664 ft 314 kts 244°
2026-05-05 23:30 36.78387 -85.33454 23220 ft 312 kts 244°
2026-05-05 23:30 36.77249 -85.35780 22783 ft 310 kts 244°
2026-05-05 23:31 36.76140 -85.38040 22341 ft 308 kts 244°
2026-05-05 23:31 36.75031 -85.40296 21934 ft 305 kts 244°
2026-05-05 23:31 36.73934 -85.42561 21901 ft 302 kts 244°
2026-05-05 23:31 36.72853 -85.44865 21872 ft 313 kts 245°
2026-05-05 23:32 36.71772 -85.47193 21613 ft 313 kts 245°
2026-05-05 23:32 36.70671 -85.49554 21013 ft 317 kts 244°
2026-05-05 23:32 36.69571 -85.51905 20536 ft 315 kts 244°
2026-05-05 23:32 36.68466 -85.54266 19979 ft 316 kts 244°
2026-05-05 23:33 36.67359 -85.56621 19617 ft 310 kts 244°
2026-05-05 23:33 36.66275 -85.58921 19119 ft 310 kts 244°
2026-05-05 23:33 36.65181 -85.61237 18658 ft 309 kts 244°
2026-05-05 23:33 36.64099 -85.63529 18177 ft 307 kts 244°
2026-05-05 23:34 36.63028 -85.65801 17727 ft 306 kts 243°
2026-05-05 23:34 36.61958 -85.68076 17271 ft 304 kts 243°
2026-05-05 23:34 36.60883 -85.70356 16788 ft 303 kts 243°
2026-05-05 23:34 36.59817 -85.72606 16450 ft 298 kts 243°
2026-05-05 23:35 36.58773 -85.74802 16149 ft 292 kts 243°
2026-05-05 23:35 36.57765 -85.76920 16031 ft 280 kts 243°
2026-05-05 23:35 36.56768 -85.79022 15458 ft 286 kts 243°
2026-05-05 23:35 36.55755 -85.81168 14718 ft 295 kts 243°
2026-05-05 23:36 36.54708 -85.83389 13936 ft 304 kts 243°
2026-05-05 23:36 36.53628 -85.85674 13235 ft 309 kts 242°
2026-05-05 23:36 36.52536 -85.87962 12818 ft 305 kts 242°
2026-05-05 23:36 36.51463 -85.90203 12315 ft 304 kts 242°
2026-05-05 23:37 36.50391 -85.92448 12034 ft 296 kts 242°
2026-05-05 23:37 36.49346 -85.94635 12003 ft 294 kts 242°
2026-05-05 23:37 36.48292 -85.96848 11990 ft 300 kts 242°
2026-05-05 23:37 36.47237 -85.99069 11982 ft 297 kts 242°
2026-05-05 23:38 36.46212 -86.01212 11981 ft 280 kts 242°
2026-05-05 23:38 36.45233 -86.03242 11985 ft 266 kts 242°
2026-05-05 23:38 36.44296 -86.05202 11989 ft 261 kts 242°
2026-05-05 23:38 36.43375 -86.07134 11889 ft 259 kts 242°
2026-05-05 23:39 36.42450 -86.09074 11396 ft 263 kts 242°
2026-05-05 23:39 36.41524 -86.11010 10968 ft 263 kts 242°
2026-05-05 23:39 36.40606 -86.12921 10845 ft 251 kts 242°
2026-05-05 23:39 36.39836 -86.14774 10862 ft 230 kts 251°
2026-05-05 23:40 36.39597 -86.16653 10749 ft 215 kts 272°
2026-05-05 23:40 36.39955 -86.18440 10294 ft 218 kts 284°
2026-05-05 23:40 36.40464 -86.20216 9780 ft 221 kts 284°
2026-05-05 23:40 36.40956 -86.22028 9321 ft 221 kts 283°
2026-05-05 23:41 36.41416 -86.23820 8903 ft 217 kts 280°
2026-05-05 23:41 36.41607 -86.25642 8458 ft 213 kts 268°
2026-05-05 23:41 36.41586 -86.27468 8075 ft 211 kts 265°
2026-05-05 23:41 36.41553 -86.29254 7879 ft 200 kts 265°
2026-05-05 23:42 36.41534 -86.30924 7642 ft 191 kts 265°
2026-05-05 23:42 36.41527 -86.32563 7238 ft 190 kts 265°
2026-05-05 23:42 36.41526 -86.34216 6821 ft 191 kts 265°
2026-05-05 23:42 36.41537 -86.35865 6392 ft 191 kts 265°
2026-05-05 23:43 36.41558 -86.37515 5836 ft 199 kts 265°
2026-05-05 23:43 36.41590 -86.39265 5253 ft 206 kts 265°
2026-05-05 23:43 36.41637 -86.41045 4803 ft 207 kts 265°
2026-05-05 23:43 36.41695 -86.42806 4338 ft 208 kts 265°
2026-05-05 23:44 36.41771 -86.44592 4013 ft 204 kts 266°
2026-05-05 23:44 36.41858 -86.46332 3987 ft 203 kts 265°
2026-05-05 23:44 36.41938 -86.48119 3987 ft 206 kts 262°
2026-05-05 23:44 36.41523 -86.49730 3980 ft 193 kts 227°
2026-05-05 23:45 36.40406 -86.50592 3994 ft 190 kts 204°
2026-05-05 23:45 36.39220 -86.51331 3984 ft 191 kts 214°
2026-05-05 23:45 36.38194 -86.52375 3984 ft 190 kts 221°
2026-05-05 23:45 36.37227 -86.53528 3984 ft 191 kts 223°
2026-05-05 23:46 36.36277 -86.54686 3983 ft 190 kts 223°
2026-05-05 23:46 36.35336 -86.55814 3985 ft 191 kts 222°
2026-05-05 23:46 36.34360 -86.56971 3981 ft 190 kts 222°
2026-05-05 23:46 36.33411 -86.58099 3982 ft 192 kts 222°
2026-05-05 23:47 36.32434 -86.59267 3981 ft 190 kts 222°
2026-05-05 23:47 36.31456 -86.60381 3984 ft 193 kts 219°
2026-05-05 23:47 36.30365 -86.61285 3970 ft 189 kts 206°
2026-05-05 23:47 36.29093 -86.61867 3735 ft 195 kts 199°
2026-05-05 23:48 36.27824 -86.62350 3475 ft 184 kts 199°
2026-05-05 23:48 36.26675 -86.62798 3203 ft 165 kts 199°
2026-05-05 23:48 36.25634 -86.63215 3002 ft 147 kts 198°
2026-05-05 23:48 36.24709 -86.63577 2794 ft 132 kts 198°
2026-05-05 23:49 36.23885 -86.63901 2677 ft 119 kts 198°
2026-05-05 23:49 36.23083 -86.64222 2527 ft 119 kts 198°
2026-05-05 23:49 36.22269 -86.64541 2327 ft 125 kts 196°
2026-05-05 23:49 36.21452 -86.64850 2157 ft 123 kts 196°
2026-05-05 23:50 36.20639 -86.65176 2013 ft 121 kts 196°
2026-05-05 23:50 36.19821 -86.65510 1858 ft 126 kts 196°
2026-05-05 23:50 36.18986 -86.65829 1652 ft 122 kts 194°
2026-05-05 23:50 36.18177 -86.66146 1528 ft 125 kts 195°
2026-05-05 23:51 36.17357 -86.66464 1335 ft 128 kts 195°
2026-05-05 23:51 36.16502 -86.66798 1200 ft 130 kts 195°
2026-05-05 23:51 36.15622 -86.67145 1010 ft 135 kts 195°
2026-05-05 23:51 36.14727 -86.67489 825 ft 133 kts 195°
2026-05-05 23:52 36.13826 -86.67844 662 ft 139 kts 193°
2026-05-05 23:52 36.12964 -86.68174 608 ft 102 kts 202°
2026-05-05 23:52 36.12490 -86.68368 608 ft 43 kts 199°
2026-05-05 23:52 36.12366 -86.68417 608 ft 0 kts 195°
2026-05-05 23:53 36.12319 -86.68428 608 ft 11 kts 175°
2026-05-05 23:53 36.12249 -86.68408 608 ft 9 kts 160°
2026-05-05 23:53 36.12193 -86.68378 608 ft 8 kts 154°
2026-05-05 23:54 36.12150 -86.68346 608 ft 5 kts 135°
2026-05-05 23:54 36.12149 -86.68316 608 ft 3 kts 55°
2026-05-05 23:54 36.12188 -86.68295 608 ft 12 kts 347°
2026-05-05 23:54 36.12248 -86.68343 608 ft 9 kts 339°
2026-05-05 23:55 36.12306 -86.68301 608 ft 11 kts 67°
2026-05-05 23:55 36.12340 -86.68231 608 ft 12 kts 37°
2026-05-05 23:55 36.12432 -86.68186 608 ft 14 kts 19°
2026-05-05 23:55 36.12524 -86.68149 608 ft 14 kts 14°
2026-05-05 23:56 36.12626 -86.68116 608 ft 15 kts 14°
2026-05-05 23:56 36.12731 -86.68082 608 ft 15 kts 15°
2026-05-05 23:56 36.12832 -86.68047 608 ft 14 kts 18°
2026-05-05 23:56 36.12938 -86.68002 608 ft 18 kts 19°
2026-05-05 23:57 36.13055 -86.67953 608 ft 17 kts 17°
2026-05-05 23:57 36.13168 -86.67910 608 ft 16 kts 17°
2026-05-05 23:57 36.13274 -86.67869 608 ft 15 kts 17°
2026-05-05 23:57 36.13374 -86.67830 608 ft 14 kts 17°
2026-05-05 23:58 36.13467 -86.67793 608 ft 13 kts 19°
2026-05-05 23:58 36.13520 -86.67721 608 ft 11 kts 86°
2026-05-05 23:58 36.13502 -86.67639 608 ft 10 kts 110°
2026-05-05 23:58 36.13480 -86.67554 608 ft 10 kts 107°
2026-05-05 23:59 36.13460 -86.67475 608 ft 8 kts 108°
2026-05-05 23:59 36.13441 -86.67406 608 ft 8 kts 108°
2026-05-05 23:59 36.13422 -86.67338 608 ft 7 kts 109°
2026-05-05 23:59 36.13393 -86.67290 608 ft 6 kts 136°
2026-05-06 00:00 36.13359 -86.67261 608 ft 5 kts 155°
2026-05-06 00:00 36.13334 -86.67250 608 ft 0 kts 160°
2026-05-06 00:00 36.13332 -86.67249 608 ft 0 kts 160°